JA3YAI-13 Weather Reports


time (UTC)temp
F
wind
direction
speed
knots
gust
knots
rain 1hr
in
rain 24hr
in
rain mn
in
humidity
%
barometer
mb
20260504130624 56 47 0.9 20.9 0.00 0.52 0.06 77 1008.6
20260504110623 58 148 0.9 20.9 0.00 0.74 0.06 78 1006.8
20260504081624 62 309 1.7 20.9 0.00 0.96 0.06 67 1002.9
20260504080624 63 127 0.0 20.9 0.00 0.97 0.06 68 1002.6
20260504050624 67 190 6.1 20.9 0.00 1.04 0.06 60 1000.3
20260504045624 66 338 6.1 20.9 0.00 1.04 0.06 60 1000.2
20260504044623 67 242 5.2 20.9 0.00 1.04 0.06 61 1000.1
20260504043625 68 166 2.6 18.2 0.00 1.04 0.06 60 999.7
20260504042624 67 52 5.2 18.2 0.00 1.04 0.06 60 999.7
20260504041624 67 21 5.2 15.6 0.00 1.04 0.06 64 999.6
20260504040623 66 315 5.2 15.6 0.00 1.04 0.06 62 999.6
20260504035625 66 158 2.6 15.6 0.00 1.04 0.06 63 999.6
20260504034624 65 179 4.3 15.6 0.00 1.04 0.06 61 999.6
20260504033624 65 194 1.7 15.6 0.00 1.04 0.06 63 999.6
20260504032624 65 119 2.6 15.6 0.00 1.05 0.06 63 999.4
20260504031625 65 199 5.2 15.6 0.00 1.05 0.06 66 999.3
20260504030625 65 260 6.1 15.6 0.00 1.05 0.06 67 999.4
20260504025625 64 197 5.2 15.6 0.00 1.05 0.06 67 999.4
20260504024624 64 195 5.2 15.6 0.00 1.09 0.06 67 999.3
20260504023624 65 225 4.3 15.6 0.00 1.10 0.06 67 999.2
20260504022623 65 221 5.2 15.6 0.00 1.11 0.06 69 999.2
20260504021625 65 298 2.6 15.6 0.00 1.11 0.06 67 999.2
20260504020625 65 280 5.2 15.6 0.00 1.11 0.06 66 999.4
20260504015624 65 113 6.1 15.6 0.00 1.11 0.06 66 999.3
20260504014624 67 149 5.2 15.6 0.00 1.11 0.06 64 999.2
20260504013623 67 122 4.3 15.6 0.00 1.11 0.06 64 999.2
20260504012625 66 225 5.2 15.6 0.00 1.11 0.06 67 998.9
20260504011625 66 190 5.2 15.6 0.00 1.11 0.06 67 999.1
20260504010624 67 106 5.2 15.6 0.00 1.11 0.06 64 999.0
20260504005624 67 287 2.6 15.6 0.00 1.11 0.06 66 998.9
20260504004625 67 222 5.2 15.6 0.00 1.11 0.06 65 998.5
20260504003625 66 266 6.1 15.6 0.00 1.11 0.06 65 998.8
20260504002624 66 279 5.2 15.6 0.00 1.11 0.06 66 998.4
20260504001624 66 158 4.3 15.6 0.00 1.11 0.06 69 998.7
20260504000624 66 309 5.2 15.6 0.00 1.11 0.06 69 998.6
20260503235625 65 158 7.0 15.6 0.00 1.11 0.06 71 998.3
20260503234624 64 107 7.0 14.8 0.00 1.11 0.06 72 998.1
20260503233624 64 227 6.1 14.8 0.00 1.11 0.06 73 998.5
20260503232624 64 313 7.0 14.8 0.00 1.11 0.06 74 998.0
20260503231623 64 159 5.2 14.8 0.00 1.11 0.06 76 998.0
20260503230625 64 180 5.2 14.8 0.00 1.11 0.06 77 997.4
20260503225624 63 249 5.2 14.8 0.00 1.11 0.06 78 997.9
20260503224624 62 221 4.3 14.8 0.00 1.11 0.06 78 997.9
20260503223624 62 228 6.1 14.8 0.00 1.11 0.06 77 997.5
20260503222623 62 281 2.6 14.8 0.00 1.11 0.06 78 997.6
20260503221625 63 224 2.6 14.8 0.00 1.11 0.06 79 997.2
20260503220624 62 171 1.7 14.8 0.00 1.11 0.06 81 997.3
20260503215624 62 200 4.3 14.8 0.00 1.11 0.06 80 997.3
20260503214624 62 56 1.7 14.8 0.00 1.11 0.06 80 997.1
20260503213624 62 349 2.6 14.8 0.00 1.11 0.06 80 996.8
20260503212625 62 192 1.7 14.8 0.00 1.11 0.06 79 996.4
20260503211624 61 153 6.1 14.8 0.00 1.11 0.06 80 996.4
20260503210624 61 170 0.9 13.9 0.00 1.11 0.06 84 995.9
20260503205623 61 237 2.6 13.9 0.00 1.11 0.06 84 995.9
20260503204625 61 268 2.6 13.9 0.00 1.11 0.06 85 995.6
20260503203625 61 159 2.6 13.9 0.00 1.11 0.06 85 996.1
20260503202624 61 158 5.2 13.9 0.00 1.11 0.06 86 996.6
20260503201624 61 338 2.6 13.9 0.00 1.11 0.06 86 996.5
20260503200623 61 115 2.6 13.9 0.00 1.11 0.06 86 995.8
20260503195625 61 275 2.6 13.0 0.00 1.11 0.06 87 995.8
20260503194624 60 158 5.2 13.0 0.00 1.11 0.06 88 995.8
20260503193624 60 305 1.7 13.0 0.00 1.11 0.06 89 995.6
20260503192623 60 259 1.7 13.0 0.00 1.11 0.06 90 995.2
20260503191625 61 255 2.6 13.0 0.00 1.11 0.06 89 995.4
20260503190624 61 135 5.2 13.0 0.00 1.11 0.06 89 995.0
20260503185624 61 270 4.3 13.0 0.00 1.11 0.06 88 995.4
20260503184623 61 180 2.6 12.2 0.00 1.11 0.06 89 995.1
20260503183625 61 158 4.3 12.2 0.00 1.11 0.06 89 994.9
20260503182624 61 227 5.2 12.2 0.00 1.11 0.06 90 994.6
20260503181624 61 21 2.6 12.2 0.00 1.11 0.06 93 994.4
20260503180624 61 337 2.6 12.2 0.00 1.11 0.06 95 994.2
20260503175623 60 293 2.6 12.2 0.00 1.11 0.06 97 994.4
20260503174625 61 45 2.6 12.2 0.06 1.11 0.06 98 994.2
20260503173625 61 315 1.7 12.2 0.06 1.11 0.06 98 993.9
20260503172624 61 333 1.7 12.2 0.06 1.11 0.06 99 993.9
20260503171624 62 135 4.3 12.2 0.06 1.11 0.06 99 993.8
20260503170623 63 208 2.6 7.8 0.06 1.11 0.06 99 993.6
20260503150624 64 135 4.3 7.8 0.00 1.05 0.00 99 993.2